Location: Feudal
(51.8839°N, 107.6105°W)
Time: 05:30:03
(UTC+00:00)

Envisat - Pass Details

Date: 21 January 2022
Orbit: 764 x 765 km, 98.2° (Epoch: 25 May)

Event Time Altitude Azimuth Distance (km) Brightness Sun altitude
Rises 10:43:09 0° 27° (NNE) 3,244 6.8 -39.6°
Reaches altitude 10° 10:46:25 10° 49° (NE) 2,311 6.1 -39.1°
Maximum altitude 10:49:28 16° 86° (E) 1,931 5.6 -38.7°
Drops below altitude 10° 10:52:31 10° 124° (ESE) 2,301 5.8 -38.2°
Sets 10:55:44 0° 146° (SE) 3,222 6.4 -37.8°
